[[{"header":{"parameterUnit":"m.s-1","parameterCategory":1,"la1":30.2991,"la2":30.254,"lo1":-89.0895,"lo2":-89.0444,"dy":0.0017,"dx":0.0017,"nx":28,"ny":28,"refTime":"2023-11-05T09:00:00:Z","depth":0,"parameterNumber":2,"parameterNumberName":"U-component_of_WINDS"},"data":[0,0,0,0,0,0,0,0,0,0,0,0,0,0,0,0,0,0,0,0,0,0,0,0,0,0,0,0,0,0,0,0,0,0,0,0,0,0,0,0,0,0,0,0,0,0,0,0,0,0,0,0,0,0,0,0,0,0,0.5459,0.5459,0,0.5499,0.5499,0.55,0.5494,0.5493,0.5493,0.5492,0.5533,0.5534,0.5536,0,0,0,0,0,0,0,0,0,0,0,0,0,0.5377,0.5379,0.5459,0.5459,0.546,0.5499,0.5499,0.55,0.5494,0.5493,0.5492,0.5492,0.5532,0.5534,0.5536,0,0,0,0,0,0,0,0,0,0,0,0,0,0.5414,0.5379,0.5459,0.5462,0.5462,0.5498,0.5499,0.55,0.5494,0.5493,0.5492,0.5491,0.5532,0.5534,0.5537,0.5572,0,0,0.5544,0.5545,0,0,0,0,0,0,0,0,0.5412,0.5417,0.5461,0.5462,0.5462,0.549,0.5485,0.5524,0.5494,0.5482,0.5492,0.5491,0.5519,0.5523,0.5533,0.5574,0.5576,0.5545,0.5546,0.5547,0.5548,0,0,0,0,0,0,0,0.541,0.5416,0.5475,0.5461,0.5462,0.5461,0.5465,0.5493,0.5506,0.5483,0.5483,0.5488,0.552,0.553,0.5533,0.5576,0.5544,0.5547,0.5548,0.5549,0.5648,0.5649,0,0,0,0,0,0,0.5406,0.5413,0.5473,0.5476,0.5434,0.5463,0.5468,0.5482,0.5506,0.5508,0.5488,0.5487,0.5526,0.553,0.5535,0.5577,0.5547,0.555,0.5551,0.5647,0.5648,0.5649,0,0,0,0,0,0,0.5405,0.5412,0.5472,0.5445,0.5452,0.5465,0.5482,0.5484,0.5494,0.551,0.5512,0.5497,0.5526,0.5531,0.5563,0.5579,0.5551,0.5553,0.5645,0.5647,0.5649,0.5663,0,0,0,0,0,0,0.5402,0.5411,0.5425,0.5445,0.5454,0.5499,0.5483,0.5485,0.5499,0.5497,0.5518,0.552,0.5525,0.5559,0.5565,0.5582,0.5555,0.5644,0.5646,0.5648,0.5661,0.5665,0.5668,0,0,0,0,0,0.5399,0.5428,0.5426,0.5433,0.5471,0.55,0.5505,0.551,0.55,0.5514,0.5523,0.552,0.5576,0.5562,0.5569,0.5587,0.5643,0.5646,0.5648,0.5659,0.5664,0.5668,0,0,0,0,0,0,0.541,0.5431,0.5429,0.5464,0.548,0.5499,0.5517,0.5515,0.5534,0.5532,0.5538,0.5542,0.5574,0.5584,0.5568,0.5622,0.5608,0.5612,0.5614,0.5619,0.5622,0.5619,0.5557,0,0,0,0,0,0.5416,0.5438,0.5455,0.5485,0.5493,0.5503,0.5516,0.5519,0.5536,0.5542,0.5554,0.5571,0.5592,0.5606,0.5627,0.5662,0.5666,0.5678,0.5681,0.5684,0.5687,0.5706,0.5711,0.5657,0.5657,0.5657,0,0,0.543,0.5444,0.5457,0.5487,0.55,0.5522,0.5509,0.5533,0.555,0.5546,0.5576,0.5585,0.5604,0.5638,0.5653,0.5646,0.5703,0.5687,0.5689,0.5691,0.5709,0.5714,0.5718,0.5659,0.5659,0.5658,0,0,0.5466,0.5479,0.5505,0.5517,0.5537,0.5543,0.5549,0.5568,0.5574,0.5605,0.5602,0.5621,0.5658,0.5671,0.5683,0.5722,0.5719,0.5729,0.5747,0.5765,0.5769,0.5773,0.5786,0.5791,0.5732,0.5732,0.5732,0,0.548,0.5513,0.5518,0.5542,0.5555,0.5552,0.5578,0.559,0.5615,0.5624,0.5617,0.5662,0.5674,0.571,0.572,0.5729,0.5736,0.5726,0.5768,0.5772,0.5775,0.5788,0.5793,0.5733,0.5733,0.5733,0.5733,0,0.5529,0.5552,0.5571,0.5595,0.561,0.5635,0.5643,0.5657,0.5658,0.5665,0.5695,0.571,0.5733,0.5742,0.5743,0.5778,0.5773,0.5767,0.5753,0.5781,0.5793,0.5798,0.5734,0.5734,0.5734,0.5733,0,0,0.5573,0.5599,0.5605,0.5616,0.5636,0.5654,0.5678,0.5701,0.5712,0.573,0.575,0.578,0.5774,0.5787,0.579,0.5806,0.5835,0.5798,0.5798,0.5803,0.5873,0.5877,0.5883,0.5833,0.5834,0.5835,0.5871,0,0.561,0.5653,0.5658,0.5696,0.5717,0.5714,0.5735,0.575,0.5757,0.5776,0.5784,0.5805,0.5796,0.5803,0.5819,0.5828,0.5849,0.5826,0.5851,0.5852,0.5846,0.5889,0.5894,0.5927,0.5876,0.5877,0.5877,0,0.566,0.5678,0.5718,0.5735,0.5744,0.5762,0.5782,0.58,0.5817,0.5821,0.5835,0.5835,0.5859,0.5845,0.5878,0.5862,0.5873,0.5879,0.588,0.5883,0.5866,0.5892,0.5938,0.5943,0.5885,0.5884,0.5884,0,0.5687,0.5721,0.5749,0.5758,0.5779,0.5792,0.5801,0.5816,0.5829,0.5846,0.5855,0.5875,0.5886,0.5901,0.5907,0.5896,0.594,0.5926,0.5943,0.5943,0.5952,0.5952,0.6,0.596,0.596,0.596,0.596,0,0.5727,0.5752,0.5761,0.5779,0.5806,0.581,0.5837,0.5845,0.5859,0.5877,0.5876,0.5894,0.59,0.5919,0.5923,0.595,0.5955,0.5958,0.5959,0.5958,0.5958,0.5965,0.5962,0.5962,0.5961,0.5961,0.5961,0,0.5762,0.5769,0.58,0.5816,0.5821,0.584,0.5854,0.5871,0.5877,0.5901,0.5906,0.5917,0.5938,0.5945,0.5972,0.5974,0.6005,0.6004,0.5999,0.5999,0.6016,0.6014,0.6071,0.6078,0.6034,0.6034,0.6034,0,0.5787,0.5806,0.5824,0.5836,0.5846,0.5866,0.5878,0.5883,0.5897,0.5916,0.593,0.5951,0.5968,0.6002,0.6012,0.6032,0.6031,0.6049,0.6034,0.6032,0.603,0.6029,0.603,0.6052,0.6053,0.6053,0.6053,0,0.5831,0.5833,0.5851,0.5871,0.5886,0.5902,0.5917,0.5927,0.5934,0.5949,0.597,0.5983,0.601,0.603,0.605,0.6059,0.6057,0.6058,0.6063,0.6062,0.6058,0.6059,0.6006,0.6057,0.6056,0.6056,0.6056,0.6056,0.5861,0.5877,0.5892,0.5912,0.5924,0.5937,0.5953,0.5962,0.598,0.6001,0.6003,0.6026,0.6041,0.6068,0.6078,0.6095,0.609,0.6098,0.6099,0.6101,0.6102,0.6055,0.6099,0.6099,0.6099,0.6099,0.6099,0,0.5903,0.5913,0.5931,0.5952,0.5968,0.5964,0.5981,0.5994,0.6014,0.6028,0.6045,0.6069,0.6089,0.61,0.612,0.6132,0.6131,0.6137,0.6136,0.6138,0.6106,0.6099,0.6137,0.6137,0.6137,0.6137,0.6137,0.6137,0.5927,0.5954,0.5958,0.599,0.5999,0.6022,0.6031,0.6044,0.6055,0.6082,0.6098,0.6105,0.6118,0.6138,0.6156,0.6159,0.6166,0.6172,0.6174,0.6144,0.614,0.6136,0.613,0.6173,0.6173,0.6204,0.6204,0.6204]},{"header":{"parameterUnit":"m.s-1","parameterCategory":1,"la1":30.2991,"la2":30.254,"lo1":-89.0895,"lo2":-89.0444,"dy":0.0017,"dx":0.0017,"nx":28,"ny":28,"refTime":"2023-11-05T09:00:00:Z","depth":0,"parameterNumber":3,"parameterNumberName":"V-component_of_WINDS"},"data":[0,0,0,0,0,0,0,0,0,0,0,0,0,0,0,0,0,0,0,0,0,0,0,0,0,0,0,0,0,0,0,0,0,0,0,0,0,0,0,0,0,0,0,0,0,0,0,0,0,0,0,0,0,0,0,0,0,0,2.6012,2.601,0,2.5796,2.5794,2.5791,2.5625,2.5623,2.5622,2.562,2.5392,2.5388,2.5383,0,0,0,0,0,0,0,0,0,0,0,0,0,2.6274,2.627,2.6012,2.601,2.6007,2.5797,2.5794,2.5791,2.5625,2.5623,2.5621,2.5619,2.5394,2.5388,2.5383,0,0,0,0,0,0,0,0,0,0,0,0,0,2.6119,2.6269,2.6013,2.5899,2.5887,2.5797,2.5794,2.579,2.5625,2.5623,2.5621,2.5619,2.5395,2.5389,2.5382,2.5386,0,0,2.5361,2.5358,0,0,0,0,0,0,0,0,2.6128,2.611,2.5918,2.5907,2.5893,2.5735,2.5802,2.5654,2.5626,2.5724,2.562,2.5617,2.5508,2.5491,2.5456,2.5375,2.5365,2.536,2.5356,2.5353,2.5351,0,0,0,0,0,0,0,2.6139,2.6118,2.5926,2.5916,2.59,2.5856,2.5832,2.5773,2.5631,2.5716,2.5703,2.568,2.55,2.5463,2.5449,2.5362,2.536,2.5354,2.535,2.5347,2.5273,2.5275,0,0,0,0,0,0,2.6169,2.6128,2.5933,2.592,2.6008,2.5854,2.5826,2.5788,2.5632,2.5606,2.5682,2.5673,2.5476,2.5457,2.544,2.5434,2.5353,2.5346,2.5342,2.5271,2.5273,2.5276,0,0,0,0,0,0,2.6175,2.6153,2.5942,2.6021,2.5991,2.5852,2.581,2.5785,2.5747,2.5607,2.558,2.5671,2.5473,2.545,2.5401,2.5424,2.5343,2.5337,2.5268,2.5271,2.5275,2.5423,0,0,0,0,0,0,2.6183,2.6156,2.6158,2.6022,2.5987,2.5909,2.5811,2.5782,2.5737,2.5723,2.5589,2.5564,2.547,2.5412,2.5394,2.5413,2.5332,2.5265,2.527,2.5273,2.5415,2.5431,2.5444,0,0,0,0,0,2.6193,2.6207,2.6159,2.6136,2.5987,2.591,2.589,2.5783,2.574,2.5739,2.5648,2.5568,2.5425,2.5409,2.5387,2.5404,2.5263,2.5268,2.5273,2.5409,2.5428,2.5444,0,0,0,0,0,0,2.6346,2.6187,2.6132,2.6102,2.6022,2.5883,2.5878,2.5806,2.5734,2.5724,2.5592,2.5563,2.5528,2.546,2.5445,2.5399,2.5334,2.5335,2.5444,2.5461,2.5476,2.5492,2.5326,0,0,0,0,0,2.6377,2.6331,2.6193,2.618,2.6143,2.6018,2.5981,2.5906,2.5815,2.578,2.5685,2.5599,2.5534,2.5494,2.5426,2.5405,2.5373,2.5406,2.5421,2.5433,2.5435,2.5418,2.5431,2.5292,2.5292,2.5292,0,0,2.6438,2.6346,2.6324,2.6208,2.6137,2.609,2.599,2.5944,2.5907,2.5771,2.572,2.5648,2.5543,2.5508,2.5487,2.5451,2.5467,2.544,2.5451,2.5445,2.5425,2.5438,2.545,2.5295,2.5295,2.5294,0,0,2.6527,2.6454,2.6435,2.6366,2.626,2.6177,2.6173,2.6045,2.5993,2.594,2.5837,2.579,2.5681,2.561,2.556,2.5624,2.5548,2.5606,2.5681,2.5666,2.5677,2.5686,2.5708,2.5717,2.5608,2.5609,2.5609,0,2.6617,2.6544,2.6433,2.6394,2.6346,2.6224,2.6202,2.614,2.6017,2.5985,2.5947,2.5808,2.5729,2.5675,2.5691,2.5655,2.5644,2.562,2.5685,2.5693,2.5699,2.5719,2.5728,2.5616,2.5616,2.5615,2.5614,0,2.6659,2.661,2.6607,2.6495,2.6446,2.6416,2.6299,2.6262,2.6192,2.6113,2.6059,2.596,2.5871,2.5852,2.5782,2.5789,2.5769,2.571,2.5641,2.5722,2.5738,2.5745,2.5628,2.5625,2.5622,2.5621,0,0,2.6836,2.6664,2.6665,2.6612,2.6487,2.6446,2.641,2.6325,2.6296,2.6215,2.6181,2.6093,2.6037,2.598,2.5901,2.5888,2.5944,2.5829,2.5825,2.5854,2.5945,2.599,2.6001,2.5894,2.5895,2.5895,2.5953,0,2.6904,2.6836,2.6736,2.6699,2.6652,2.6536,2.6505,2.6424,2.635,2.6297,2.6213,2.6153,2.6084,2.6049,2.6032,2.5942,2.5961,2.5936,2.5858,2.5857,2.5888,2.6009,2.6056,2.6116,2.5959,2.596,2.5961,0,2.6974,2.6903,2.6864,2.6743,2.6719,2.6693,2.6607,2.6559,2.6464,2.6411,2.6349,2.6264,2.6218,2.6158,2.6092,2.6078,2.604,2.5991,2.599,2.5978,2.5913,2.5999,2.6132,2.6141,2.597,2.5969,2.5968,0,2.7106,2.7,2.6963,2.6921,2.678,2.6765,2.6704,2.6607,2.6563,2.6487,2.6457,2.6377,2.6332,2.6271,2.6165,2.6131,2.6111,2.6042,2.6064,2.6067,2.6063,2.6065,2.6192,2.6041,2.6041,2.6041,2.6041,0,2.7192,2.7172,2.7021,2.6998,2.6971,2.6856,2.6832,2.6761,2.6676,2.6635,2.653,2.6493,2.6357,2.6304,2.6221,2.6179,2.616,2.6114,2.6092,2.6123,2.6129,2.6095,2.6088,2.6043,2.6043,2.6042,2.6042,0,2.7335,2.7233,2.7184,2.7056,2.7023,2.7009,2.6897,2.6869,2.679,2.674,2.6721,2.6596,2.6528,2.6418,2.6317,2.6261,2.6234,2.6197,2.6267,2.6253,2.6281,2.628,2.639,2.6398,2.6245,2.6247,2.6248,0,2.7396,2.7378,2.7249,2.7216,2.716,2.7108,2.7063,2.6948,2.6905,2.6797,2.6782,2.6707,2.664,2.6538,2.6436,2.6358,2.6318,2.6362,2.6306,2.6338,2.6318,2.632,2.6317,2.6375,2.6378,2.6379,2.6381,0,2.7514,2.7465,2.7406,2.733,2.728,2.7214,2.7141,2.7119,2.6988,2.6945,2.6876,2.6826,2.6724,2.6651,2.6559,2.6494,2.6415,2.64,2.6401,2.6431,2.6472,2.645,2.6302,2.6397,2.6396,2.6395,2.6394,2.6393,2.7616,2.7596,2.7502,2.744,2.7374,2.731,2.7278,2.7196,2.7137,2.7048,2.6983,2.6919,2.6824,2.6693,2.6633,2.658,2.6544,2.6546,2.6546,2.6548,2.6559,2.6483,2.6563,2.6562,2.6561,2.6561,2.656,0,2.7729,2.7664,2.7608,2.7512,2.7463,2.7397,2.7314,2.7276,2.7222,2.7141,2.708,2.7,2.6929,2.6823,2.6742,2.672,2.6682,2.6703,2.6702,2.6689,2.6596,2.6603,2.6735,2.6735,2.6735,2.6735,2.6735,2.6735,2.7782,2.7743,2.7684,2.7611,2.7545,2.7483,2.7442,2.7381,2.7316,2.7234,2.7175,2.7108,2.7016,2.6929,2.686,2.683,2.6805,2.6837,2.6796,2.6711,2.6695,2.668,2.6686,2.6833,2.6833,2.6893,2.6893,2.6894]}]]